Location: Podia
(1.5569°N, 32.3469°E)
Time: 13:20:57
(UTC+00:00)

Vanguard 2 - Visible Passes

Search period start: 26 September 2020 00:00
Search period end: 06 October 2020 00:00
Orbit: 554 x 2937 km, 32.9° (Epoch: 25 September)

Date Brightness Start Highest point End Pass type
(mag) Time Alt. Az. Time Alt. Az. Time Alt. Az.
26 Sep 9.4 01:52:31 31° NNW 01:52:31 31° NNW 01:57:33 10° NNE visible
26 Sep 11.7 17:06:42 10° SSW 17:13:43 14° S 17:21:16 10° SSE visible
26 Sep 11.5 19:21:21 10° SSW 19:29:12 18° S 19:29:12 18° S visible
27 Sep 10.9 00:08:12 12° NE 00:08:12 12° NE 00:08:40 10° NE visible
27 Sep 9.8 02:09:39 21° NW 02:09:39 21° NW 02:14:26 10° N visible
27 Sep 11.7 17:26:39 10° SSW 17:33:47 14° S 17:41:15 10° SSE visible
27 Sep 11.5 19:39:08 10° SSW 19:45:45 19° S 19:45:45 19° S visible
28 Sep 10.6 00:25:16 16° NE 00:25:16 16° NE 00:26:21 10° NE visible
28 Sep 10.2 02:26:42 13° NW 02:27:20 13° NW 02:30:35 10° N visible
28 Sep 11.6 17:45:34 10° SSW 17:53:47 15° S 18:00:55 11° SE visible
28 Sep 11.5 19:56:45 10° SSW 20:02:18 20° SSW 20:02:18 20° SSW visible
29 Sep 10.5 00:42:17 18° NNE 00:42:17 18° NNE 00:43:49 10° NNE visible
29 Sep 11.7 15:50:30 10° SSW 15:55:22 12° S 16:00:44 10° SSE visible
29 Sep 11.5 18:03:43 10° SSW 18:13:38 17° SSE 18:17:27 16° SSE visible
29 Sep 11.6 20:14:19 10° SSW 20:18:50 19° SSW 20:18:50 19° SSW visible
30 Sep 10.4 00:59:16 18° NNE 00:59:16 18° NNE 01:01:04 10° NNE visible
30 Sep 11.7 16:10:46 10° SSW 16:15:16 12° S 16:20:07 10° SSE visible
30 Sep 11.3 18:21:28 10° SSW 18:33:13 21° SSE 18:34:01 21° SSE visible
30 Sep 11.7 20:31:58 10° SW 20:35:24 18° SSW 20:35:24 18° SSW visible
01 Oct 10.4 01:16:11 16° N 01:16:11 16° N 01:18:03 10° N visible
01 Oct 11.7 16:29:38 10° S 16:35:12 12° S 16:41:12 10° SSE visible
01 Oct 11.2 18:39:02 10° SSW 18:50:35 26° SSE 18:50:35 26° SSE visible
01 Oct 11.8 20:49:42 10° SW 20:51:58 15° SW 20:51:58 15° SW visible
02 Oct 10.5 01:33:04 13° NNW 01:33:04 13° NNW 01:34:37 10° N visible
02 Oct 11.6 16:47:32 10° SSW 16:55:01 14° SSE 17:03:07 10° SE visible
02 Oct 11.1 18:56:32 10° SSW 19:07:10 30° S 19:07:10 30° S visible
02 Oct 11.9 21:07:36 10° SW 21:08:34 12° SW 21:08:34 12° SW visible
03 Oct 11.4 17:05:03 10° SSW 17:14:35 18° SSE 17:22:25 13° SE visible
03 Oct 11.1 19:14:04 10° SSW 19:23:48 33° S 19:23:48 33° S visible
04 Oct 11.2 17:22:25 10° SSW 17:33:53 22° SSE 17:39:04 20° SE visible
04 Oct 11.1 19:31:41 10° SW 19:40:28 34° SSW 19:40:28 34° SSW visible
05 Oct 11.0 17:39:46 10° SSW 17:52:52 28° SSE 17:55:46 27° SE visible
05 Oct 11.1 19:49:25 10° SW 19:57:10 33° SW 19:57:10 33° SW visible
